Dewpoint
3 7 6 5 5 9 9 9 9 9 9 8 8 8 7 7 7 7 8 7 5 3 -0 2 3 3 4 4 7 7 7 8 7 6 6 6 6 6 6 7 6 6 6
4 8 7 6 7 7 8 8 9 9 8 8 7 8 7 7 7 5 3 1 -0 -1 -2 -2 -4 -5 -3 -1 0 7 7 7 6 4 4 4 3 1 4 5 6 6 7
8 8 8 8 8 7 6 6 8 9 8 8 6 7 7 6 6 5 1 0 0 -1 -1 -6 -6 -7 -6 -5 -2 3 5 5 5 5 3 4 3 2 -0 -0 -0 4 5
6 8 8 8 8 8 8 8 7 8 8 8 7 7 6 6 3 2 -1 -2 -1 -1 -1 -4 -5 -6 -6 -6 -4 -2 -1 4 4 5 3 4 4 3 3 2 0 -1 -0
2 4 6 8 8 8 8 8 8 8 8 8 8 8 5 5 4 2 -0 -2 -2 -1 -1 -1 -2 -2 -2 -2 -3 -3 -2 -0 2 1 2 3 3 3 4 4 3 2 1
-1 0 1 4 7 8 8 8 8 8 8 8 8 7 6 6 6 5 4 2 1 -0 -0 -1 -1 -1 -1 -1 -2 -1 -2 -2 -1 4 3 3 3 3 2 2 3 2 1
-3 -3 -2 -1 2 4 6 7 8 8 8 8 8 8 7 6 6 5 4 3 1 0 -0 -0 -0 -0 -0 -1 -1 -1 -1 -1 -1 -1 3 4 3 3 3 3 3 3 2
-5 -5 -5 -5 -4 -1 2 4 6 7 7 7 7 7 7 7 6 5 4 3 2 1 0 0 0 0 0 -0 -0 -1 -1 -1 -1 -1 -1 1 3 3 3 4 3 3 3
-8 -8 -8 -8 -8 -7 -5 -2 1 3 4 5 5 6 6 6 7 5 7 7 6 3 2 1 1 1 1 0 -0 -0 -1 -2 -2 -2 -2 -1 1 3 3 4 4 3 3
-10 -10 -10 -10 -10 -10 -10 -8 -7 -6 -3 -0 2 3 4 4 5 7 4 5 6 7 7 7 5 3 3 2 1 0 -0 -1 -1 -1 -2 -2 -1 -1 2 3 3 4 4
-11 -11 -11 -11 -12 -12 -13 -12 -11 -10 -10 -9 -6 -4 -2 1 3 4 4 4 4 4 6 7 6 6 8 7 6 4 4 1 0 -0 -1 -1 -2 -2 -1 1 1 1 3
-11 -11 -11 -11 -12 -14 -15 -15 -14 -15 -14 -13 -12 -11 -11 -9 -7 -4 -0 1 3 3 4 5 5 5 7 6 7 6 7 7 5 4 1 -0 -1 -2 -2 0 -1 -1 -1
-11 -12 -12 -12 -12 -13 -15 -16 -17 -18 -17 -17 -16 -15 -13 -12 -12 -11 -9 -7 -4 -2 -0 3 3 3 5 5 6 6 6 7 6 6 6 4 1 -0 -0 -1 -1 -1 -1
-12 -12 -12 -12 -12 -11 -12 -14 -17 -18 -18 -18 -18 -17 -17 -16 -15 -14 -13 -12 -10 -8 -6 -4 -2 2 4 5 5 5 6 6 6 6 6 6 6 5 4 1 0 -1 -1
-12 -12 -12 -12 -11 -11 -11 -11 -11 -13 -16 -17 -17 -17 -17 -18 -18 -18 -17 -16 -14 -13 -11 -8 -7 -5 -2 0 3 4 5 5 5 6 6 6 5 5 5 4 0 -1 0
-12 -12 -11 -11 -11 -11 -12 -12 -12 -12 -11 -11 -11 -13 -15 -16 -16 -17 -18 -18 -17 -17 -15 -13 -9 -6 -5 -5 -2 0 4 4 5 4 5 5 5 5 5 4 3 2 1
-12 -12 -11 -11 -11 -11 -12 -14 -15 -15 -15 -14 -12 -13 -13 -14 -14 -15 -15 -15 -15 -16 -16 -15 -14 -12 -7 -6 -6 -2 1 3 3 4 4 4 5 5 4 4 3 2 1
-11 -11 -11 -11 -11 -11 -12 -14 -14 -14 -15 -14 -14 -14 -14 -13 -14 -14 -13 -13 -13 -13 -13 -14 -14 -13 -13 -10 -3 -1 1 2 3 3 3 4 4 4 4 4 3 2 1
-11 -11 -11 -11 -11 -11 -12 -12 -12 -11 -11 -11 -15 -15 -14 -12 -12 -12 -12 -11 -10 -10 -11 -10 -10 -10 -11 -11 -11 -1 1 2 2 3 2 3 3 3 3 3 2 2 1
-11 -11 -11 -11 -11 -12 -12 -12 -12 -11 -11 -13 -14 -13 -13 -12 -12 -11 -11 -11 -9 -8 -8 -8 -9 -9 -10 -10 -10 -2 1 1 1 2 3 3 2 3 3 3 2 1 1
-11 -12 -12 -12 -13 -14 -14 -14 -14 -13 -13 -15 -18 -17 -14 -14 -13 -13 -12 -11 -9 -8 -7 -7 -7 -7 -6 -6 -3 -3 -1 -0 0 0 2 3 3 2 3 3 2 1 1
-14 -15 -14 -14 -15 -15 -15 -15 -15 -14 -16 -16 -17 -20 -17 -13 -13 -13 -13 -12 -10 -9 -8 -7 -7 -6 -6 -5 -4 -3 -3 -1 -1 0 1 2 2 2 2 2 1 -1 -1
-16 -16 -15 -15 -15 -15 -15 -15 -15 -14 -14 -14 -14 -20 -20 -15 -13 -10 -10 -10 -9 -9 -9 -8 -8 -6 -5 -6 -4 -3 -2 -2 -1 -0 -0 1 1 1 2 1 -2 -2 -3
-15 -15 -14 -15 -15 -15 -14 -15 -15 -14 -13 -14 -15 -19 -20 -15 -12 -10 -10 -9 -9 -9 -9 -8 -8 -7 -6 -5 -5 -4 -3 -3 -2 -1 -0 0 1 1 0 -1 -3 -3 -3
-14 -13 -14 -14 -14 -14 -15 -16 -15 -14 -14 -14 -16 -17 -17 -15 -11 -11 -10 -10 -9 -9 -8 -8 -7 -7 -7 -5 -5 -4 -4 -3 -2 -1 -1 -1 -0 -1 -2 -3 -3 -3 -4
-13 -14 -14 -14 -15 -14 -16 -16 -15 -14 -14 -13 -14 -15 -13 -12 -11 -11 -10 -10 -10 -9 -8 -8 -7 -7 -7 -6 -5 -4 -4 -4 -3 -2 -2 -1 -1 -1 -2 -3 -4 -4 -5
Wind_Speed
13 4 10 14 20 7 16 24 30 27 23 20 21 22 21 20 17 16 15 16 17 19 20 21 21 21 20 20 18 18 19 17 16 14 12 12 15 16 14 15 17 16 20
22 14 18 20 13 11 8 7 19 23 18 17 19 18 17 18 17 18 17 19 19 20 20 22 21 21 22 21 22 21 21 21 21 18 12 7 12 18 21 23 22 19 19
26 20 18 10 9 14 16 18 5 15 13 13 12 13 13 14 16 18 19 23 21 18 16 18 19 21 23 24 25 26 24 24 25 21 14 7 9 12 21 24 23 22 23
35 27 23 23 18 8 6 6 7 11 18 13 9 10 10 11 14 17 19 20 19 17 19 20 21 22 22 23 23 24 25 25 26 25 27 15 8 9 8 16 24 24 25
39 35 28 21 14 15 13 8 4 6 15 15 12 9 8 5 6 11 14 17 18 18 19 20 21 22 23 24 25 26 28 28 28 28 29 31 25 16 11 8 16 23 25
33 35 36 29 27 11 8 11 9 5 5 15 16 11 10 10 8 9 11 14 16 18 19 20 22 22 24 24 25 27 27 28 29 28 28 31 35 34 25 18 12 19 23
32 35 36 32 32 27 25 10 2 6 8 4 7 14 16 17 13 12 13 14 16 17 17 20 22 23 23 25 27 28 29 30 31 32 34 33 34 32 22 23 20 18 18
28 31 33 32 31 30 28 23 22 15 8 5 7 5 9 11 19 14 16 18 18 19 18 19 20 21 23 24 27 29 30 31 33 34 34 37 38 36 34 32 26 21 19
23 24 25 27 27 24 23 25 22 20 15 10 11 7 6 4 8 23 19 19 21 21 23 22 23 24 25 26 27 29 30 31 32 34 35 37 39 38 37 35 37 30 23
22 23 21 21 22 25 25 23 22 21 19 15 14 14 12 7 4 14 26 28 21 17 22 24 25 28 29 30 30 31 32 33 34 35 36 38 39 40 40 41 41 39 37
22 20 20 21 22 21 21 22 21 20 20 19 17 15 14 11 8 6 6 15 29 38 34 28 27 32 30 29 33 36 37 37 37 38 39 39 39 41 41 42 43 42 42
15 16 17 17 20 22 22 23 22 22 22 22 19 16 14 13 11 9 7 6 9 13 24 32 34 31 31 30 33 33 29 32 38 39 41 43 40 41 42 42 44 44 42
12 13 16 19 21 22 23 24 23 24 23 23 22 20 19 18 17 15 14 13 13 13 14 17 21 25 26 30 36 33 33 34 35 40 44 46 44 45 42 41 44 43 41
15 15 15 16 17 18 21 23 25 25 26 25 25 23 23 23 23 22 21 21 20 20 19 19 20 22 24 26 29 29 30 32 38 35 40 45 49 50 50 50 45 42 38
17 20 21 20 20 21 21 22 24 25 27 27 27 27 27 27 28 28 28 27 26 26 26 26 25 25 25 26 29 29 30 32 32 34 37 41 43 45 46 45 45 43 44
16 18 19 21 23 23 23 24 24 25 25 25 25 27 29 31 32 32 31 32 34 32 31 30 30 30 30 30 28 28 31 32 33 34 35 35 36 39 40 45 47 47 45
16 17 18 19 21 23 24 26 26 26 26 26 25 28 30 31 32 33 34 34 34 35 36 36 35 35 35 34 33 30 31 34 34 34 35 34 34 34 39 42 44 44 41
15 16 17 19 20 21 22 24 25 27 28 28 30 31 32 33 34 34 34 35 36 38 38 38 37 39 41 40 36 34 32 34 37 35 35 35 34 34 32 38 42 43 42
14 15 15 17 18 20 22 23 24 24 24 27 31 33 34 35 36 37 38 37 38 38 38 39 40 39 43 42 42 34 36 36 37 39 35 36 35 33 31 33 38 41 42
13 16 17 17 18 20 21 23 23 24 23 28 30 32 35 36 37 37 38 38 38 38 39 40 40 40 43 39 40 34 34 37 38 39 40 37 37 35 32 34 38 42 45
13 15 16 16 17 19 21 22 23 23 26 29 30 31 31 34 37 40 40 40 37 37 38 41 41 41 40 37 35 34 36 40 39 39 41 40 35 35 34 34 37 40 44
15 15 16 17 18 18 20 22 24 25 28 29 31 32 33 33 36 37 39 41 39 37 39 42 43 40 37 34 34 33 35 39 39 42 39 39 35 34 33 35 37 36 41
19 18 18 21 19 19 19 23 25 25 27 29 30 33 34 34 33 34 37 39 37 37 41 41 43 40 36 35 35 33 32 35 38 39 39 36 35 33 32 31 37 39 44
18 19 20 22 22 21 22 24 25 26 26 29 33 35 35 35 34 34 34 35 38 40 41 40 42 44 39 39 35 33 30 29 33 35 38 35 33 33 31 26 44 44 44
18 18 20 21 23 24 26 26 25 26 30 32 34 35 36 34 35 35 35 36 37 35 40 43 43 44 43 38 34 33 31 27 26 28 33 37 38 37 32 33 44 44 42
19 20 21 22 25 25 27 26 25 26 30 31 35 36 34 33 34 37 43 36 33 35 35 35 34 38 37 35 35 32 28 27 24 23 31 35 40 41 39 40 46 46 45
Wind_Direction
298 153 111 78 47 40 186 169 167 167 172 179 191 202 204 207 203 196 199 208 201 209 208 211 206 206 202 199 195 198 199 194 198 190 197 202 197 200 201 203 203 205 203
264 157 101 86 118 101 92 203 178 168 177 186 185 186 196 210 214 219 215 213 211 214 215 218 218 216 215 211 210 202 207 204 207 205 209 207 232 227 210 207 211 215 209
88 83 94 100 105 93 124 122 217 208 210 202 186 171 179 204 205 215 215 212 217 224 229 228 226 222 220 219 218 214 219 220 221 212 207 195 220 232 234 228 225 218 223
45 62 62 57 56 80 170 177 205 241 203 206 215 210 220 225 229 227 224 222 223 230 226 224 223 225 224 225 227 226 228 226 232 225 223 214 191 193 194 237 234 228 229
34 39 47 54 52 43 50 48 38 261 227 197 205 204 217 220 234 227 228 229 237 239 238 237 238 238 239 236 235 234 234 235 237 240 238 229 224 210 205 229 228 229 231
31 39 43 46 50 62 46 40 41 50 169 214 215 213 210 218 237 250 250 250 246 244 241 242 243 244 245 246 244 243 243 242 241 238 245 239 235 235 232 228 239 240 236
34 36 37 36 44 44 56 57 30 27 40 355 253 227 222 230 248 261 269 262 257 252 248 248 246 247 250 251 250 247 246 246 244 243 241 246 247 246 245 242 234 230 231
29 33 31 30 33 40 49 55 64 72 60 33 356 322 258 241 232 268 267 263 259 260 258 254 250 251 254 255 253 251 250 251 250 250 245 247 249 250 247 239 229 230 233
29 31 31 33 33 35 36 47 51 50 58 54 45 47 48 338 259 227 264 265 253 255 255 257 259 257 256 254 253 253 253 252 253 252 250 248 249 249 250 238 240 235 236
27 24 24 25 29 33 39 44 44 43 45 47 42 42 38 6 326 238 242 265 287 265 258 259 260 260 258 255 254 254 254 253 254 254 254 252 252 249 249 251 250 247 243
16 17 18 16 17 23 28 29 29 30 34 36 37 33 29 25 22 1 275 269 260 270 281 276 279 275 270 259 253 252 252 252 253 255 253 254 254 253 251 251 252 250 248
13 10 10 8 8 12 14 13 13 12 12 10 8 9 8 6 4 359 345 315 297 288 258 264 267 270 261 268 268 254 261 262 255 257 256 257 254 252 252 249 253 255 254
12 10 6 5 4 4 4 3 1 360 356 353 350 344 340 335 334 332 325 319 309 301 295 289 286 279 269 260 261 261 261 256 261 257 251 251 253 251 250 252 254 255 254
4 6 6 6 4 0 358 355 352 350 347 344 341 337 332 326 320 314 309 304 300 298 295 289 285 282 278 274 271 269 266 264 260 260 257 255 252 253 251 249 248 249 248
357 357 358 360 359 359 358 355 352 349 345 341 338 334 328 324 320 314 307 301 295 290 286 286 286 283 279 276 272 268 268 264 265 262 260 258 255 254 256 252 247 242 242
352 352 352 350 350 350 350 349 350 349 348 346 344 338 333 328 325 319 312 306 300 294 288 283 280 278 279 279 278 276 271 267 265 265 268 265 262 256 256 255 250 251 249
346 346 347 347 346 346 344 343 342 341 341 343 342 342 340 338 336 331 325 320 312 304 296 290 285 278 273 273 275 273 271 264 263 263 263 265 265 264 255 252 248 248 247
342 342 341 340 341 340 338 338 340 340 338 339 339 339 337 335 334 334 332 327 321 314 308 299 291 284 277 270 269 273 268 264 261 260 261 263 263 264 259 252 245 244 241
334 333 333 331 332 334 333 333 335 334 336 333 335 336 336 333 333 333 331 329 323 319 312 305 297 288 281 277 271 264 270 263 261 259 258 257 260 261 259 254 248 245 239
328 326 325 325 325 326 327 327 327 328 327 326 329 330 332 332 329 329 328 326 321 316 315 312 304 294 287 280 273 268 260 263 261 260 256 251 254 259 259 258 252 243 240
321 321 319 318 319 320 320 320 320 321 318 320 322 325 327 327 328 326 328 328 324 315 312 312 313 309 300 285 274 270 261 260 260 259 260 256 254 254 257 256 253 249 243
323 322 319 316 318 319 318 315 314 315 316 317 319 323 325 325 325 324 326 327 327 323 318 312 310 308 307 294 285 274 264 256 259 260 260 260 260 260 258 255 253 248 242
318 320 318 316 318 317 316 313 313 315 315 316 316 321 323 323 325 324 322 324 326 320 313 310 310 305 304 295 291 284 266 261 256 258 256 256 258 256 257 257 236 231 226
313 315 315 315 315 317 316 315 315 315 314 315 316 323 324 324 323 323 325 323 318 313 310 307 305 305 298 292 295 286 277 269 253 254 255 252 254 252 250 243 219 223 225
312 313 311 310 311 313 316 319 318 317 315 317 320 325 324 323 322 323 323 317 310 309 307 304 301 300 296 291 293 287 283 279 270 259 252 244 245 246 237 222 215 217 214
311 311 309 309 311 311 315 318 317 315 316 317 323 323 322 322 321 323 321 322 313 315 310 305 301 300 295 289 281 278 274 272 263 261 250 241 241 240 232 216 208 207 205
Height
1467 1474 1474 1469 1469 1472 1473 1474 1467 1485 1488 1494 1500 1505 1509 1514 1518 1520 1524 1527 1529 1530 1533 1536 1538 1541 1544 1547 1552 1555 1557 1559 1561 1563 1565 1567 1568 1570 1573 1574 1575 1576 1578
1464 1469 1471 1474 1479 1478 1478 1482 1481 1483 1490 1496 1500 1504 1509 1513 1517 1519 1522 1524 1526 1528 1530 1533 1536 1539 1541 1544 1546 1550 1553 1556 1557 1559 1562 1564 1566 1566 1568 1570 1571 1573 1574
1462 1468 1472 1479 1477 1477 1486 1484 1488 1490 1493 1496 1499 1504 1509 1512 1515 1517 1519 1521 1524 1527 1529 1531 1534 1536 1538 1540 1542 1546 1548 1551 1553 1556 1559 1561 1561 1561 1564 1565 1566 1569 1569
1471 1476 1480 1479 1480 1486 1489 1489 1489 1491 1493 1495 1499 1504 1508 1511 1513 1515 1517 1520 1523 1524 1526 1528 1530 1532 1535 1537 1539 1542 1545 1547 1549 1553 1554 1556 1558 1558 1561 1562 1562 1564 1565
1488 1484 1485 1485 1489 1488 1488 1488 1487 1489 1490 1495 1500 1503 1507 1511 1514 1514 1516 1518 1520 1522 1524 1526 1528 1530 1531 1534 1536 1538 1540 1543 1546 1546 1549 1552 1554 1554 1556 1557 1557 1559 1560
1502 1498 1495 1492 1490 1491 1492 1495 1496 1494 1493 1497 1501 1502 1505 1509 1512 1514 1516 1517 1518 1519 1520 1522 1524 1526 1528 1530 1532 1534 1535 1538 1540 1542 1543 1544 1547 1549 1551 1553 1553 1553 1553
1509 1504 1502 1501 1497 1496 1494 1493 1496 1497 1499 1500 1500 1499 1500 1504 1509 1512 1514 1516 1516 1516 1517 1519 1521 1522 1524 1526 1528 1528 1530 1532 1533 1536 1537 1539 1540 1544 1546 1548 1550 1548 1549
1513 1509 1506 1503 1504 1498 1497 1498 1498 1498 1499 1501 1499 1500 1501 1502 1504 1507 1511 1513 1513 1514 1514 1515 1516 1518 1519 1521 1522 1522 1524 1526 1527 1529 1531 1532 1533 1536 1539 1541 1544 1543 1544
1520 1519 1516 1513 1511 1514 1512 1501 1502 1503 1501 1499 1499 1498 1498 1498 1500 1504 1506 1506 1508 1509 1509 1510 1511 1513 1514 1515 1515 1515 1517 1518 1519 1521 1523 1525 1526 1528 1530 1533 1535 1535 1536
1526 1522 1522 1521 1517 1513 1512 1511 1511 1509 1506 1505 1503 1500 1497 1500 1499 1499 1502 1502 1501 1500 1502 1504 1505 1506 1508 1508 1508 1508 1510 1511 1511 1513 1514 1516 1518 1520 1521 1524 1526 1527 1528
1526 1527 1523 1520 1517 1516 1513 1511 1511 1510 1507 1504 1500 1500 1499 1500 1499 1499 1498 1500 1499 1499 1496 1497 1498 1500 1498 1498 1499 1499 1500 1501 1503 1504 1506 1507 1510 1509 1512 1514 1516 1517 1520
1534 1531 1529 1527 1521 1516 1511 1510 1509 1505 1501 1500 1502 1502 1501 1500 1499 1498 1498 1497 1496 1495 1493 1491 1489 1490 1490 1491 1491 1490 1492 1492 1491 1494 1496 1497 1499 1500 1501 1504 1504 1508 1510
1536 1533 1529 1523 1519 1516 1512 1509 1506 1503 1503 1503 1501 1499 1498 1499 1497 1494 1494 1494 1493 1491 1488 1487 1485 1484 1484 1483 1482 1482 1483 1482 1481 1483 1484 1484 1488 1490 1491 1492 1494 1498 1502
1532 1531 1529 1526 1523 1518 1513 1509 1506 1504 1501 1500 1498 1497 1494 1493 1490 1489 1489 1488 1486 1485 1485 1483 1481 1478 1476 1474 1474 1474 1474 1473 1472 1472 1473 1473 1475 1477 1478 1479 1483 1488 1491
1531 1527 1525 1523 1520 1517 1515 1511 1508 1504 1501 1497 1494 1493 1490 1488 1486 1483 1480 1479 1478 1478 1477 1474 1473 1470 1469 1468 1467 1466 1465 1464 1465 1463 1463 1464 1464 1467 1468 1470 1474 1476 1479
1530 1528 1525 1522 1517 1514 1511 1508 1505 1502 1499 1496 1493 1489 1485 1482 1478 1475 1473 1471 1469 1467 1466 1465 1463 1461 1460 1459 1458 1457 1455 1456 1455 1454 1455 1455 1455 1456 1458 1461 1462 1467 1470
1531 1528 1526 1522 1518 1514 1510 1506 1503 1501 1497 1493 1490 1486 1482 1477 1473 1469 1465 1462 1460 1457 1455 1453 1452 1450 1448 1449 1448 1450 1448 1447 1446 1445 1446 1446 1446 1447 1448 1451 1452 1454 1460
1532 1529 1526 1522 1519 1515 1511 1507 1502 1498 1495 1490 1486 1482 1478 1475 1471 1466 1462 1457 1452 1448 1444 1442 1441 1439 1437 1438 1439 1440 1439 1438 1436 1436 1436 1437 1439 1439 1439 1441 1440 1444 1447
1532 1529 1526 1523 1519 1515 1511 1507 1503 1500 1495 1491 1485 1480 1476 1470 1464 1460 1455 1451 1446 1441 1436 1433 1430 1428 1425 1427 1428 1429 1427 1425 1424 1425 1425 1429 1430 1431 1431 1431 1431 1435 1438
1530 1527 1524 1520 1517 1514 1510 1506 1502 1498 1494 1489 1484 1479 1473 1467 1462 1457 1451 1445 1440 1433 1428 1423 1421 1417 1413 1414 1415 1418 1417 1413 1413 1415 1415 1416 1418 1422 1423 1422 1424 1426 1429
1529 1526 1523 1520 1517 1512 1508 1504 1500 1496 1491 1485 1480 1475 1471 1465 1458 1450 1444 1438 1432 1428 1422 1415 1410 1406 1403 1400 1402 1403 1404 1402 1401 1401 1401 1403 1407 1410 1414 1414 1415 1419 1423
1525 1523 1519 1517 1513 1510 1506 1501 1497 1492 1486 1480 1475 1470 1465 1460 1453 1446 1439 1432 1426 1420 1414 1408 1402 1397 1394 1390 1389 1390 1390 1391 1390 1388 1390 1392 1397 1401 1403 1404 1406 1413 1415
1521 1519 1516 1512 1509 1506 1502 1496 1492 1487 1481 1476 1470 1465 1459 1454 1449 1442 1435 1428 1423 1417 1410 1404 1396 1391 1388 1384 1382 1379 1378 1379 1379 1378 1380 1384 1388 1391 1392 1395 1399 1404 1406
1519 1515 1512 1508 1504 1501 1497 1492 1486 1482 1476 1470 1464 1459 1452 1446 1441 1436 1431 1424 1419 1412 1405 1398 1391 1385 1380 1376 1373 1371 1369 1368 1369 1369 1370 1373 1377 1380 1383 1388 1391 1395 1397
1514 1512 1508 1504 1500 1496 1491 1486 1481 1476 1470 1465 1459 1453 1447 1441 1433 1429 1424 1419 1412 1408 1398 1391 1384 1377 1369 1367 1365 1362 1360 1359 1359 1360 1360 1363 1366 1370 1374 1377 1382 1385 1392
1511 1507 1504 1499 1494 1490 1486 1481 1477 1472 1466 1459 1454 1448 1441 1436 1430 1422 1412 1412 1405 1396 1390 1383 1377 1368 1362 1358 1355 1353 1352 1351 1351 1352 1351 1352 1355 1358 1363 1367 1372 1377 1384